Weather History for Livingston, MT

Change the Weather History Date:

Sunday, February 17, 2013

  Actual Average Record
Temperature  
Mean Temperature 32 °F 29 °F  
Max Temperature 41 °F 40 °F 60 °F (1996)
Min Temperature 24 °F 18 °F -31 °F (2006)
Degree Days  
Heating Degree Days 32 36  
Month to date heating degree days 625  
Since 1 July heating degree days 4966  
Moisture  
Dew Point 25 °F    
Average Humidity 78    
Maximum Humidity 93    
Minimum Humidity 41    
Precipitation  
Precipitation 0.11 in 0.02 in 0.93 in (1955)
Month to date precipitation 0.28  
Year to date precipitation 0.77  
Sea Level Pressure  
Sea Level Pressure 29.80 in    
Wind  
Wind Speed 18 mph (WSW)    
Max Wind Speed 31 mph    
Max Gust Speed 44 mph    
Visibility 6 miles    
Events Fog , Snow    
T = Trace of Precipitation, MM = Missing Value Source: NWS Daily Summary

Daily Weather History Graph

Daily Weather History Graph

Search for Another Location

Airport:

Trip Planner

Search our weather history database for the weather conditions in past years. The results will help you decide how hot, cold, wet, or windy it might be!

Date:

Astronomy

Feb. 17, 2013 Rise Set
Actual Time 7:20 AM MST 5:51 PM MST
Civil Twilight 6:49 AM MST 6:22 PM MST
Nautical Twilight 6:15 AM MST 6:57 PM MST
Astronomical Twilight 5:40 AM MST 7:31 PM MST
Moon 10:51 AM MST 1:14 AM MST
Length of Visible Light 11h 32m
Length of Day
10h 31m
Waxing Crescent, 49% of the Moon is Illuminated
Feb 17
Waxing Crescent
Feb 17
First Quarter
Feb 25
Full
Mar 4
Last Quarter
Mar 11
New

Hourly Weather History & Observations

Time (MST) Temp. Windchill Dew Point Humidity Pressure Visibility Wind Dir Wind Speed Gust Speed Precip Events Conditions
12:53 AM 41.0 °F 29.7 °F 19.0 °F 41% 29.67 in 10.0 mi SSW 31.1 mph 43.7 mph N/A   Clear
1:53 AM 41.0 °F 29.8 °F 19.9 °F 43% 29.65 in 10.0 mi SSW 29.9 mph 42.6 mph N/A   Partly Cloudy
2:53 AM 37.0 °F 25.9 °F 26.1 °F 65% 29.72 in 8.0 mi WSW 23.0 mph 36.8 mph 0.00 in Snow Light Snow
3:29 AM 33.8 °F 23.9 °F 30.2 °F 87% 29.72 in 3.0 mi WSW 15.0 mph - 0.00 in Snow Light Snow
3:36 AM 33.8 °F 23.9 °F 30.2 °F 87% 29.72 in 2.0 mi WSW 15.0 mph - 0.00 in Snow Light Snow
3:45 AM 33.8 °F 23.5 °F 30.2 °F 87% 29.72 in 1.2 mi WSW 16.1 mph - 0.00 in Snow Light Snow
3:53 AM 32.0 °F 21.2 °F 30.0 °F 92% 29.74 in 1.0 mi WSW 16.1 mph 20.7 mph 0.00 in Snow Light Snow
4:01 AM 32.0 °F 21.6 °F 30.2 °F 93% 29.72 in 1.8 mi WSW 15.0 mph - 0.00 in Snow Light Snow
4:10 AM 32.0 °F 21.2 °F 28.4 °F 87% 29.72 in 2.5 mi WSW 16.1 mph - 0.00 in Snow Light Snow
4:17 AM 32.0 °F 20.8 °F 28.4 °F 87% 29.72 in 6.0 mi SW 17.3 mph 23.0 mph 0.00 in Snow Light Snow
4:24 AM 32.0 °F 20.8 °F 28.4 °F 87% 29.72 in 9.0 mi SW 17.3 mph - 0.00 in   Overcast
4:33 AM 32.0 °F 21.6 °F 26.6 °F 80% 29.71 in 10.0 mi WSW 15.0 mph 24.2 mph 0.00 in   Overcast
4:53 AM 33.1 °F 22.2 °F 26.1 °F 75% 29.73 in 10.0 mi WSW 17.3 mph 28.8 mph 0.00 in   Overcast
6:38 AM 30.2 °F 20.2 °F 26.6 °F 86% 29.72 in 2.5 mi NW 12.7 mph - 0.00 in Snow Light Snow
6:41 AM 30.2 °F 20.8 °F 26.6 °F 86% 29.72 in 1.2 mi WNW 11.5 mph - 0.00 in Snow Light Snow
6:44 AM 30.2 °F 21.3 °F 26.6 °F 86% 29.72 in 0.8 mi West 10.4 mph - 0.01 in Snow Light Snow
6:53 AM 30.0 °F 21.7 °F 27.0 °F 88% 29.79 in 0.5 mi West 9.2 mph - 0.01 in Fog , Snow Snow
7:00 AM 28.4 °F 19.1 °F 26.6 °F 93% 29.72 in 0.5 mi NNW 10.4 mph - 0.00 in Fog , Snow Snow
7:08 AM 28.4 °F 19.1 °F 26.6 °F 93% 29.72 in 0.5 mi NW 10.4 mph - 0.06 in Fog , Snow Snow
7:16 AM 28.4 °F 19.1 °F 26.6 °F 93% 29.72 in 0.2 mi NNW 10.4 mph - 0.08 in Fog , Snow Snow
7:39 AM 28.4 °F 22.2 °F 26.6 °F 93% 29.73 in 2.5 mi WSW 5.8 mph - 0.10 in Snow Light Snow
7:43 AM 28.4 °F 21.2 °F 26.6 °F 93% 29.73 in 9.0 mi WSW 6.9 mph - 0.10 in   Overcast
7:53 AM 28.9 °F 21.9 °F 25.0 °F 85% 29.81 in 10.0 mi WSW 6.9 mph - 0.10 in   Overcast
8:53 AM 30.9 °F 27.5 °F 21.9 °F 69% 29.81 in 4.0 mi West 3.5 mph - 0.00 in Snow Light Snow
9:53 AM 32.0 °F 21.6 °F 21.0 °F 64% 29.82 in 10.0 mi WSW 15.0 mph 25.3 mph 0.00 in   Overcast
10:53 AM 30.9 °F 18.1 °F 21.9 °F 69% 29.84 in 10.0 mi WSW 21.9 mph - N/A   Overcast
11:53 AM 32.0 °F 18.4 °F 21.9 °F 66% 29.83 in 10.0 mi WSW 26.5 mph 31.1 mph N/A   Overcast
12:53 PM 32.0 °F 19.5 °F 21.0 °F 64% 29.83 in 10.0 mi WSW 21.9 mph - N/A   Overcast
1:53 PM 32.0 °F 20.5 °F 21.0 °F 64% 29.85 in 10.0 mi WSW 18.4 mph - N/A   Overcast
2:53 PM 32.0 °F 20.5 °F 21.9 °F 66% 29.88 in 10.0 mi WSW 18.4 mph - N/A   Overcast
3:53 PM 30.9 °F 18.7 °F 21.9 °F 69% 29.91 in 10.0 mi SW 19.6 mph - N/A   Overcast
4:53 PM 30.9 °F 20.7 °F 21.9 °F 69% 29.93 in 10.0 mi WSW 13.8 mph - N/A   Overcast
5:53 PM 30.9 °F 19.8 °F 21.0 °F 67% 29.95 in 10.0 mi WSW 16.1 mph - N/A   Overcast
6:53 PM 28.0 °F 19.3 °F 21.0 °F 75% 30.00 in 10.0 mi NW 9.2 mph - N/A   Mostly Cloudy
7:53 PM 28.0 °F 20.0 °F 21.0 °F 75% 30.02 in 10.0 mi WNW 8.1 mph - N/A   Overcast
8:53 PM 27.0 °F 18.7 °F 21.9 °F 81% 30.02 in 10.0 mi WNW 8.1 mph - N/A   Overcast
10:53 PM 24.1 °F 16.0 °F 21.0 °F 88% 30.05 in 10.0 mi WSW 6.9 mph - 0.00 in   Mostly Cloudy
11:53 PM 24.1 °F 16.0 °F 21.0 °F 88% 30.05 in 10.0 mi WNW 6.9 mph - N/A   Overcast